EST,Max TemperatureF,Mean TemperatureF,Min TemperatureF,Max Dew PointF,MeanDew PointF,Min DewpointF,Max Humidity, Mean Humidity, Min Humidity, Max Sea Level PressureIn, Mean Sea Level PressureIn, Min Sea Level PressureIn, Max VisibilityMiles, Mean VisibilityMiles, Min VisibilityMiles, Max Wind SpeedMPH, Mean Wind SpeedMPH, Max Gust SpeedMPH,PrecipitationIn, CloudCover, Events, WindDirDegrees
2013-11-1,68,57,46,63,52,39,100,78,37,29.88,29.81,29.72,10,10,3,15,6,30,0.00,4,,259
2013-11-2,62,50,39,46,40,34,100,72,34,30.15,29.96,29.86,10,10,8,13,2,,0.00,3,,321
2013-11-3,57,45,33,39,36,32,100,74,41,30.32,30.23,30.14,10,9,0,10,3,,0.00,0,,10
2013-11-4,64,48,32,37,35,30,100,60,34,30.39,30.33,30.28,10,9,1,21,5,,0.00,0,,156
2013-11-5,64,56,48,41,37,34,62,50,39,30.41,30.35,30.27,10,10,10,15,10,,0.00,3,,136
2013-11-6,71,62,53,61,52,34,100,70,44,30.27,30.17,30.08,10,10,2,22,13,,0.00,6,,163
2013-11-7,60,45,30,59,39,28,100,76,44,30.32,30.23,30.06,10,9,2,14,6,,0.00,4,,343
2013-11-8,55,40,24,34,28,23,100,69,29,30.39,30.32,30.26,10,10,7,12,2,,0.00,0,,20
2013-11-9,59,46,33,37,31,27,93,58,33,30.32,30.27,30.23,10,10,10,13,3,,0.00,0,,172
2013-11-10,64,50,33,45,38,32,100,69,32,30.34,30.30,30.27,10,10,10,9,2,,0.00,1,,6
2013-11-11,64,45,26,37,29,19,100,60,18,30.31,30.24,30.17,10,10,9,7,1,,0.00,2,,292
2013-11-12,48,38,28,43,28,12,93,66,36,30.57,30.38,30.18,10,10,7,22,7,,0.00,5,,2
2013-11-13,44,30,17,21,17,16,93,61,31,30.66,30.55,30.45,10,9,2,10,4,,0.00,0,,17
2013-11-14,57,38,19,23,18,12,86,52,18,30.45,30.37,30.25,10,9,2,9,2,,0.00,0,,147
2013-11-15,55,48,41,48,39,21,100,70,40,30.24,30.18,30.10,10,10,5,13,7,,0.00,6,,143
2013-11-16,62,56,50,55,53,48,100,87,77,30.17,30.11,30.06,10,9,6,20,9,,0.00,8,,147
2013-11-17,69,63,57,66,61,55,100,89,78,30.06,29.94,29.84,10,9,2,15,9,,0.00,8,,177
2013-11-18,60,51,42,57,41,30,100,63,31,30.20,30.09,29.96,10,10,9,13,4,,0.00,2,,347
2013-11-19,51,43,35,30,28,27,81,58,41,30.24,30.19,30.15,10,10,10,12,7,,0.00,0,,15
2013-11-20,59,42,26,37,30,27,100,57,31,30.26,30.21,30.16,10,8,2,21,7,,0.00,0,,139
2013-11-21,60,55,50,52,45,37,82,68,58,30.32,30.28,30.24,10,10,10,15,11,,0.00,6,,150
2013-11-22,60,54,48,59,54,48,100,95,82,30.30,30.26,30.22,10,8,1,13,6,,0.00,8,,134
2013-11-23,48,38,28,46,35,19,100,81,52,30.45,30.34,30.25,10,9,2,15,9,,0.00,5,,355
2013-11-24,35,27,19,19,13,9,80,57,35,30.58,30.49,30.43,10,10,10,16,11,23,0.00,0,,18
2013-11-25,41,31,21,34,18,10,93,55,29,30.43,30.31,30.16,10,10,5,16,7,,0.00,4,,132
2013-11-26,42,38,33,43,37,32,100,96,93,30.15,29.94,29.80,10,6,2,17,8,,0.00,8,,28
2013-11-27,33,27,19,30,19,10,93,71,51,30.33,30.12,29.89,10,10,8,20,12,28,0.00,4,,337
2013-11-28,42,27,12,21,14,9,100,67,25,30.49,30.41,30.33,10,10,10,6,1,,0.00,0,,264
2013-11-29,51,35,19,27,22,18,100,71,33,30.56,30.50,30.45,10,10,8,7,1,,0.00,0,,344
2013-11-30,57,44,32,28,26,21,75,51,26,30.49,30.40,30.28,10,10,5,12,6,,0.00,0,,155